Regional Weather Roundup
Issued by NWS Charleston, WV

Home | Current Version | Previous Version | Graphics & Text | Print | Product List | Glossary On
Versions: 1 2 3 4 5 6 7 8 9 10 11 12 13 14 15 16 17 18 19 20 21 22 23 24 25 26 27
000
ASUS41 KRLX 172310
RWRRLX
West Virginia Regional Weather Roundup
National Weather Service Charleston WV
700 PM EDT TUE OCT 17 2017

Note: "fair" indicates few or no clouds below 12,000 feet with no
significant weather and/or obstructions to visibility.

WVZ003-180000-
Northern Panhandle of West Virginia

CITY           SKY/WX    TMP DP  RH WIND       PRES   REMARKS
WHEELING       CLEAR     56  37  49 SW7       30.26R
$$

WVZ009-180000-
Northwest West Virginia

CITY           SKY/WX    TMP DP  RH WIND       PRES   REMARKS
PARKERSBURG    CLEAR     57  41  55 CALM      30.30S
$$

WVZ006-180000-
Western West Virginia

CITY           SKY/WX    TMP DP  RH WIND       PRES   REMARKS
HUNTINGTON     CLEAR     61  37  41 CALM      30.28S
$$

WVZ015-180000-
West Central West Virginia

CITY           SKY/WX    TMP DP  RH WIND       PRES   REMARKS
CHARLESTON     CLEAR     59  37  44 CALM      30.28S
$$

WVZ022-031-180000-
North Central West Virginia

CITY           SKY/WX    TMP DP  RH WIND       PRES   REMARKS
CLARKSBURG     CLEAR     57  36  45 S3        30.28S
MORGANTOWN     CLEAR     56  36  47 S3        30.28S
$$

WVZ025-035-042-045-180000-
Southern West Virginia

CITY           SKY/WX    TMP DP  RH WIND       PRES   REMARKS
BECKLEY        CLEAR     55  32  41 N5        30.29S
LOGAN            N/A     57  37  47 CALM      30.28S
BLUEFIELD      CLEAR     55  33  43 CALM      30.30R
LEWISBURG      CLEAR     55  37  50 CALM      30.29S
$$

WVZ047-180000-
Northern Mountains of West Virginia

CITY           SKY/WX    TMP DP  RH WIND       PRES   REMARKS
ELKINS         CLEAR     45  36  70 CALM      30.30R
$$

WVZ052-180000-
Eastern Panhandle of West Virginia

CITY           SKY/WX    TMP DP  RH WIND       PRES   REMARKS
MARTINSBURG    CLEAR     54  36  50 S7        30.27S
PETERSBURG     CLEAR     50  42  72 W6        30.28R
$$




USA.gov is the U.S. government's official web portal to all federal, state and local government web resources and services.